Wind_Gust
13 15 14 13 13 14 13 13 13 12 12 12 12 12 12 14 14 14 13 13 13 13 12 11 12 13 11 12 13 12 13 12 13 13 15 15 14 15 15 15 15 15 16 15 15 13 14 14 14 14 14 14 14 13 13 13 12 11 10 8 10 10 9 10 9 10 10 12 12 13 16 17 19 19 20 19 17 16 16 17 17 17 16 17 18
13 14 15 15 16 14 13 13 12 14 13 13 12 12 11 11 12 13 13 12 11 10 11 10 8 9 10 11 11 12 11 12 14 14 13 14 13 14 14 14 15 15 15 15 14 14 14 14 14 14 14 14 12 13 13 13 13 13 13 11 10 11 11 11 11 12 12 11 10 12 14 15 16 20 20 18 17 17 17 17 17 17 16 16 16
14 14 15 16 16 16 15 13 13 12 14 13 12 12 12 12 12 12 12 12 12 11 10 12 9 8 8 11 11 13 11 11 12 12 12 13 13 13 14 14 14 14 14 14 14 14 13 13 14 14 14 13 13 14 14 14 14 14 13 13 13 8 8 9 11 12 12 8 9 12 15 15 14 16 17 18 18 16 16 16 16 17 17 15 16
14 14 15 16 17 16 15 15 14 13 14 13 14 13 12 11 11 11 12 11 12 12 12 12 12 11 11 11 10 10 13 12 12 11 12 12 13 13 13 13 14 15 15 15 15 14 14 14 14 14 15 15 13 14 15 14 13 14 14 13 13 11 12 11 11 12 12 11 13 13 9 14 16 14 14 15 16 16 16 17 17 18 17 17 16
14 14 15 16 17 18 16 15 15 14 14 15 15 14 12 12 11 11 11 12 11 13 13 13 13 13 13 12 12 13 11 11 10 12 11 11 12 13 13 14 15 15 15 16 16 15 14 14 15 14 15 15 15 15 15 15 13 12 13 13 13 13 12 10 9 10 11 11 12 13 14 16 11 16 14 13 13 16 17 18 18 18 20 19 19
14 14 15 16 17 17 16 16 16 16 15 15 15 14 12 13 12 10 10 11 11 11 12 11 11 12 12 11 11 12 11 11 11 10 10 11 12 10 12 14 15 15 16 16 16 15 15 15 14 15 15 15 15 15 15 14 15 16 15 13 13 12 13 11 12 10 9 10 9 10 12 12 13 13 12 13 13 15 18 19 19 19 18 19 18
13 14 14 16 16 17 17 17 17 16 16 16 16 15 15 14 13 11 10 10 10 10 10 10 11 11 10 9 9 9 9 10 9 9 9 10 10 10 11 12 14 15 15 15 15 15 14 14 14 14 14 15 15 15 16 16 16 16 15 15 15 14 13 14 13 14 9 9 9 9 10 10 11 13 11 17 14 12 14 17 18 17 18 19 20
15 15 15 17 16 17 17 17 17 17 16 16 16 16 16 16 14 13 11 10 10 10 9 9 11 11 10 10 9 9 8 10 10 9 8 8 9 9 9 10 12 14 15 16 15 15 14 14 13 13 13 14 14 15 15 15 15 15 15 15 15 15 14 15 13 13 15 12 10 10 9 10 11 13 13 13 15 17 14 16 16 16 18 19 18
16 16 16 17 18 16 16 17 16 16 16 16 16 16 16 15 14 13 12 11 11 10 10 9 10 11 11 11 10 8 8 11 11 10 10 9 9 8 8 10 11 12 14 14 14 14 13 13 12 13 13 13 13 14 14 14 14 14 15 16 16 16 15 14 14 15 14 14 11 9 10 11 12 15 12 16 13 17 16 17 18 16 20 20 18
16 17 15 15 15 14 15 15 16 16 15 15 14 14 14 14 15 15 15 14 13 12 11 10 10 11 11 10 11 11 10 11 10 12 11 10 10 9 8 8 10 10 11 13 12 14 13 12 12 12 11 12 12 13 13 13 14 14 15 15 15 15 14 15 15 14 13 13 12 11 10 8 9 9 9 11 13 18 20 16 16 17 21 18 18
15 14 14 13 13 14 14 15 16 15 15 15 15 15 14 15 15 16 15 14 13 13 12 11 10 10 10 11 11 12 12 12 12 12 12 11 10 10 9 8 8 10 9 10 10 12 11 11 11 11 11 11 11 12 12 14 14 13 14 13 15 15 15 14 13 13 13 13 12 12 12 13 13 11 10 9 11 16 20 17 14 17 23 21 15
14 14 14 12 12 14 14 15 16 16 16 17 16 15 15 15 14 14 14 13 13 12 11 12 11 11 10 10 11 11 12 12 12 12 12 12 10 9 8 8 8 8 8 9 10 10 10 9 9 9 10 10 11 10 12 12 12 12 13 14 14 14 14 14 12 13 12 12 12 12 12 11 10 11 11 10 12 16 19 21 17 20 20 20 15
14 13 12 12 13 14 14 14 15 16 17 17 17 16 16 15 15 15 15 14 14 13 13 12 12 11 11 11 10 10 10 9 10 10 10 10 10 9 8 7 8 8 9 9 9 9 9 9 11 11 11 10 10 10 11 11 12 11 12 12 12 13 13 13 13 12 12 13 12 11 12 12 11 10 11 12 10 13 15 21 16 16 23 22 14
12 12 12 13 13 14 14 14 15 15 16 18 17 17 16 16 16 16 16 15 14 14 13 13 12 11 10 10 10 10 10 9 9 9 10 8 9 9 8 7 8 7 8 9 9 8 8 8 8 9 10 11 11 11 11 11 11 12 11 12 11 11 11 10 11 10 10 10 10 11 12 12 11 11 12 16 16 16 17 17 18 18 19 19 15
11 12 13 13 13 13 13 13 14 15 15 16 17 18 17 17 17 17 16 16 16 14 13 13 13 12 11 10 10 10 10 10 9 8 10 10 9 9 8 8 7 8 9 9 8 7 7 8 9 10 11 10 10 10 10 11 12 12 11 11 11 11 11 11 10 10 11 11 10 11 11 11 12 11 10 11 13 13 16 20 21 24 17 17 16
12 12 13 12 11 11 12 13 14 14 15 15 16 16 16 17 16 17 17 16 16 15 14 14 13 11 11 11 11 11 10 9 9 9 9 9 10 10 10 9 7 7 8 7 7 7 8 8 9 10 10 9 9 10 10 12 12 12 12 11 12 11 11 11 10 10 11 10 10 10 9 11 11 12 10 9 10 12 15 16 18 18 20 20 18
12 12 12 12 12 12 14 13 14 14 14 15 16 16 15 16 16 17 17 16 16 16 15 14 13 12 12 13 12 12 12 11 11 11 11 11 10 10 10 9 9 7 7 7 7 8 7 8 9 9 8 8 9 10 10 11 11 11 11 11 12 11 11 11 11 11 10 9 9 10 9 9 10 10 10 9 10 13 14 14 14 12 13 20 19
11 11 11 12 12 13 13 13 14 14 15 15 16 14 15 16 16 17 17 18 17 17 17 15 14 14 14 14 14 14 13 12 11 12 13 13 12 12 11 11 10 9 8 7 7 8 8 8 9 9 8 8 8 9 10 11 11 11 10 10 11 10 10 11 11 11 11 9 9 9 9 10 10 10 11 10 9 11 13 13 12 15 16 14 16
11 13 13 13 14 14 14 14 14 14 14 14 15 16 16 15 16 17 18 17 17 17 16 16 15 15 15 16 15 15 14 12 12 11 12 14 15 13 13 11 10 10 9 8 8 9 9 9 9 9 8 9 8 9 9 10 11 10 9 10 10 10 11 11 11 11 11 10 11 10 9 10 9 9 10 10 9 10 13 11 12 11 11 9 16
12 13 14 14 14 13 13 14 15 15 15 16 15 16 16 17 16 17 17 17 17 18 17 17 17 17 16 15 16 17 15 14 12 12 13 14 15 15 14 12 12 10 9 8 8 10 10 10 9 9 9 8 9 9 10 9 9 10 10 10 10 10 11 11 11 11 10 10 10 11 11 10 10 9 9 10 9 8 9 11 12 12 11 10 11
12 12 12 12 12 12 13 13 15 14 15 16 17 18 18 18 17 19 20 20 19 18 19 18 18 18 17 17 16 16 14 14 12 13 13 14 13 13 14 13 12 11 10 10 10 11 11 10 10 10 9 9 9 9 9 8 9 10 10 10 10 11 11 10 10 10 10 10 11 11 11 11 11 10 11 9 9 9 9 10 10 11 11 11 12
11 11 10 11 11 13 14 14 15 15 17 17 18 17 19 20 22 22 22 23 21 22 20 20 19 18 18 18 17 16 15 14 13 12 13 14 14 14 13 13 12 11 11 11 11 11 11 12 10 11 10 10 9 10 8 8 9 10 10 9 10 10 10 10 9 11 11 10 10 11 12 11 11 12 11 11 10 8 7 10 11 10 12 13 12
13 12 12 12 13 13 14 14 15 16 17 17 17 19 20 19 21 21 23 22 21 22 22 21 20 19 19 18 17 16 15 13 13 13 14 16 16 15 15 15 15 13 12 12 11 12 14 13 12 11 10 10 10 10 9 9 9 9 10 9 9 10 9 9 10 10 11 10 10 10 11 10 9 10 10 10 9 9 8 10 11 11 13 12 11
15 15 15 11 11 10 11 11 13 14 14 16 16 17 18 19 21 21 21 20 19 20 21 21 21 20 19 17 18 20 20 15 14 15 16 19 19 17 17 17 16 14 14 12 11 14 14 13 12 12 12 11 11 10 10 9 10 10 10 10 9 9 9 9 9 10 10 10 10 10 10 9 9 10 11 10 9 10 10 11 12 12 13 13 12
17 16 15 12 12 15 17 16 15 15 15 14 16 18 20 21 20 21 19 19 21 22 22 21 20 20 19 19 22 26 21 20 18 16 18 19 18 18 17 19 17 16 14 13 13 14 14 15 13 14 13 11 11 11 11 11 10 9 10 9 10 10 9 10 10 10 9 10 11 10 11 10 9 10 10 10 11 11 11 12 13 14 15 14 12
19 19 19 19 20 21 20 18 20 19 19 18 16 18 19 19 20 19 18 19 21 20 19 18 18 18 19 20 25 26 25 24 21 17 18 20 19 19 19 19 18 17 15 14 14 14 16 16 15 14 13 13 11 11 11 11 10 10 10 10 10 10 11 11 11 10 11 10 10 11 11 10 10 10 11 11 11 11 11 12 12 13 15 13 13
19 20 19 19 20 21 21 20 22 21 21 21 21 20 18 17 16 17 18 19 21 19 19 19 18 17 19 22 24 24 23 20 20 19 20 21 22 20 21 20 18 17 17 16 16 16 15 16 15 14 13 13 12 12 11 11 11 11 11 11 11 11 11 10 10 11 11 10 11 11 11 11 11 11 10 11 11 10 11 12 12 12 12 13 14
22 22 23 24 23 22 22 21 21 23 24 24 24 22 18 16 16 16 17 18 19 18 18 18 18 18 19 21 24 26 22 22 21 20 21 20 21 21 21 19 18 18 18 17 16 16 15 15 14 14 14 13 12 12 12 11 11 11 11 11 11 11 11 11 11 11 11 11 11 11 12 12 12 13 13 11 10 10 10 12 11 11 12 13 14
24 24 24 23 22 22 22 22 22 22 23 24 25 24 19 15 12 13 16 19 20 18 19 19 19 20 20 19 21 22 20 21 21 21 21 21 21 20 21 20 19 18 17 17 16 16 16 17 16 15 15 14 13 11 11 11 12 12 12 12 11 12 11 11 12 12 11 11 12 13 14 15 16 14 15 14 13 13 12 12 10 10 11 13 13
23 23 22 22 23 23 23 22 22 23 24 25 25 24 23 19 16 13 14 16 17 19 19 19 20 20 18 19 20 20 21 20 20 21 22 22 22 22 21 20 20 19 18 16 15 15 16 17 17 17 15 14 13 11 11 9 8 13 12 12 12 11 11 11 11 12 12 12 13 15 17 16 15 15 15 13 13 14 15 17 14 10 11 12 12
24 24 24 24 24 24 24 24 23 24 23 24 23 23 21 19 17 16 17 18 18 18 19 19 20 19 17 17 19 19 20 22 22 22 24 26 25 24 23 22 21 20 18 17 16 16 16 16 17 16 16 14 14 13 11 10 11 12 13 12 12 12 11 11 11 11 12 13 13 14 14 14 14 13 18 15 14 14 14 14 15 14 14 16 13
25 25 25 26 26 25 25 25 24 24 23 23 22 24 23 21 17 17 17 18 19 18 17 18 19 17 17 18 18 19 20 22 23 25 26 27 26 25 24 23 22 21 19 17 17 17 16 15 15 16 16 15 14 12 14 12 12 12 10 14 12 12 11 11 11 11 12 12 12 12 11 11 12 13 15 17 17 16 15 15 15 14 13 14 12
25 25 25 25 25 24 24 23 23 25 24 23 23 22 21 19 16 14 13 13 13 14 15 18 17 17 17 17 17 19 20 21 22 23 25 25 26 25 24 24 23 21 19 19 19 18 17 16 16 16 16 16 14 13 14 15 14 12 12 12 14 12 12 11 12 12 11 11 11 11 11 12 16 14 13 14 16 18 16 18 17 17 17 16 12
24 24 24 23 24 24 24 23 23 23 22 21 21 21 21 21 22 18 13 12 13 15 17 18 16 16 16 16 17 18 19 19 20 21 22 23 24 24 22 22 21 21 21 20 19 19 17 18 18 17 17 16 14 15 15 16 15 14 13 11 14 13 12 13 13 12 11 11 10 10 12 12 12 10 11 11 13 14 14 15 15 16 16 16 13
23 23 22 21 20 21 22 22 23 23 21 21 23 23 21 21 23 23 22 18 14 14 13 14 15 16 16 17 18 19 20 19 19 20 20 22 23 22 22 22 22 21 22 22 21 20 19 18 18 18 17 17 16 18 16 16 16 15 13 11 14 13 13 13 13 12 11 11 10 10 10 12 11 10 11 10 13 13 14 16 17 17 17 16 16
22 20 19 20 20 19 20 21 20 22 24 25 23 22 22 21 20 21 23 22 20 17 19 15 14 15 17 17 18 18 18 19 19 20 21 22 23 23 23 22 20 20 19 19 19 19 19 19 19 19 17 19 18 20 17 16 16 15 13 15 15 15 14 14 14 13 12 12 11 11 11 11 11 13 10 10 10 14 16 17 18 17 17 17 18
17 15 17 18 14 15 17 18 19 21 24 23 22 22 22 21 21 22 20 20 20 19 19 18 20 18 17 17 18 18 18 18 18 19 20 20 21 23 21 22 21 21 21 21 20 21 21 21 21 20 19 19 18 18 18 17 16 17 13 17 15 16 15 15 14 14 13 13 12 12 11 12 12 13 9 9 9 11 16 17 17 16 15 16 17
17 17 17 18 19 17 18 18 19 20 19 19 19 20 20 24 23 23 23 21 22 22 22 20 19 20 20 18 17 18 18 18 18 21 21 22 21 22 23 19 19 20 21 21 21 21 20 20 21 21 22 20 18 19 20 18 18 19 16 19 17 16 15 15 15 14 13 14 12 9 8 12 12 14 8 9 9 13 15 16 16 17 16 16 15
18 17 18 19 20 19 22 21 20 20 20 19 18 18 18 22 22 23 22 22 22 24 24 23 23 21 19 21 19 19 19 18 19 21 21 20 20 23 22 20 19 19 21 19 19 20 19 19 19 20 14 20 18 19 21 20 20 21 20 19 19 18 17 16 17 16 14 14 15 12 10 12 10 14 10 8 8 12 14 13 14 14 15 15 14
20 18 18 18 18 19 22 23 21 20 17 18 17 17 16 18 20 20 24 21 21 21 25 23 23 20 20 20 19 18 18 19 21 20 21 21 20 17 21 22 21 20 19 18 18 19 19 19 18 20 19 22 20 19 23 21 21 21 20 21 20 18 19 18 17 18 17 15 15 16 14 9 11 13 10 10 8 9 12 13 12 12 13 14 13
20 21 18 19 18 18 19 18 17 17 18 17 17 16 17 18 17 17 19 20 20 20 21 21 20 22 23 22 21 20 20 20 19 18 19 19 19 21 20 22 21 22 22 21 20 20 22 22 21 21 21 22 23 19 23 22 21 22 23 19 21 20 19 19 19 18 17 17 18 17 18 13 11 12 10 11 10 8 9 12 11 12 14 14 10
17 17 20 20 20 19 21 24 21 21 20 18 18 16 15 16 16 18 18 17 18 18 18 19 21 21 20 19 21 17 17 17 17 17 18 19 20 20 21 19 18 19 19 20 20 21 23 23 22 22 21 22 19 16 20 23 22 22 22 22 20 21 19 20 18 19 18 17 17 17 18 18 15 13 11 12 11 10 10 11 17 9 9 7 12
21 21 22 21 20 21 21 20 20 20 20 19 18 17 18 16 18 19 19 18 15 15 16 17 16 17 17 18 17 17 16 19 16 17 18 19 17 21 19 18 20 20 21 23 22 22 21 23 22 21 21 22 22 22 16 22 22 22 23 22 20 17 13 18 19 18 17 17 16 16 18 21 18 15 13 13 13 12 9 13 11 9 5 7 9
20 20 21 19 19 20 20 18 20 20 19 19 19 19 19 19 20 21 20 19 18 17 16 16 15 15 16 16 17 17 17 16 18 20 20 21 19 19 20 21 21 22 23 24 25 26 25 23 23 22 21 22 23 22 18 20 23 24 22 23 22 19 17 20 18 18 17 16 18 16 19 21 18 17 14 13 14 12 14 12 9 8 8 7 13
20 22 22 20 21 20 21 19 20 20 19 20 19 19 20 21 21 20 22 22 21 20 19 17 15 15 14 15 14 15 16 18 19 20 20 21 19 18 20 22 23 23 23 23 24 24 26 26 25 23 22 22 22 23 21 22 22 24 22 22 21 20 18 16 20 18 15 16 13 16 22 21 19 18 16 12 10 13 13 10 11 11 12 14 13
19 21 22 19 20 19 20 21 20 21 21 19 19 19 21 20 21 20 21 21 20 20 20 19 19 17 16 16 17 14 14 16 15 20 20 21 21 20 21 20 21 22 23 24 24 24 24 25 26 26 24 21 21 22 22 22 19 18 19 20 21 21 18 19 17 16 14 15 17 18 20 19 17 17 20 17 17 17 12 11 11 12 15 15 14
20 20 20 21 20 22 22 22 21 21 22 22 20 21 19 20 20 21 22 22 22 22 21 19 18 18 16 17 19 18 19 17 16 20 21 21 21 22 20 19 21 22 22 22 22 22 24 23 25 23 22 22 21 23 22 21 24 24 24 22 22 22 15 15 19 19 11 15 18 16 17 13 12 17 13 9 11 13 18 16 16 17 18 16 14
19 18 19 19 21 21 22 22 22 22 22 22 22 23 23 22 21 21 22 23 22 21 22 22 20 18 16 18 20 11 16 19 19 21 23 23 22 21 22 22 23 24 22 22 22 23 25 25 26 25 23 23 22 24 26 26 25 26 25 25 24 23 24 25 25 24 22 19 19 11 15 18 18 19 19 20 20 20 20 19 20 19 19 17 9
20 19 18 20 19 21 21 21 21 21 21 21 22 23 23 22 22 20 20 21 21 19 21 21 22 21 19 17 19 19 19 20 21 19 19 20 22 22 24 22 22 23 25 26 26 25 25 25 26 23 23 27 27 29 28 21 27 19 26 28 27 27 26 25 20 13 21 20 20 20 19 21 21 22 23 22 22 22 21 21 20 19 19 19 17
19 19 18 19 19 19 20 21 22 21 21 21 21 23 23 23 23 21 21 20 20 22 21 21 22 22 21 19 19 21 21 22 22 22 21 20 11 16 19 24 25 20 22 23 19 28 27 25 22 21 24 25 25 29 21 22 21 22 23 26 24 22 20 22 17 20 18 23 24 24 24 24 24 24 24 24 23 23 22 22 22 15 19 19 18
20 21 22 22 21 21 21 22 22 21 22 23 23 23 24 23 23 22 22 21 21 21 22 25 23 24 21 21 21 21 21 22 23 22 22 21 23 17 18 20 19 18 23 24 23 23 18 17 24 23 21 21 19 17 25 26 24 24 25 25 22 21 21 19 21 25 27 25 25 26 25 25 25 24 24 24 23 23 23 22 22 22 22 20 18
Wind_Speed
6 7 7 7 7 6 5 5 6 5 5 6 6 6 6 6 6 7 6 6 5 5 4 3 4 4 3 3 4 4 4 5 5 5 5 5 5 6 5 5 5 5 6 5 5 4 4 5 5 5 5 5 4 5 5 5 4 4 3 2 3 2 1 1 2 3 1 2 0 1 2 4 5 5 6 6 6 6 6 7 6 6 6 6 7
6 6 7 7 6 7 6 5 6 6 6 6 6 5 5 5 6 6 6 5 4 3 3 3 2 2 2 3 3 4 3 3 4 5 5 5 5 5 5 5 5 5 5 5 5 5 5 4 5 5 5 5 5 5 5 5 5 5 4 3 2 2 2 3 3 4 4 3 3 2 3 4 5 7 7 7 7 6 5 6 5 6 7 7 7
5 6 7 7 7 8 6 6 6 5 7 6 6 6 5 5 5 5 5 5 4 4 4 4 3 2 2 4 3 4 4 4 4 5 5 5 5 5 5 5 5 5 5 5 5 5 5 5 5 4 5 5 4 4 4 5 5 5 5 5 4 2 1 1 3 4 4 2 3 4 5 5 3 5 6 7 6 5 5 7 7 7 8 7 6
6 6 7 8 8 7 7 6 6 6 7 6 6 6 5 4 5 5 5 4 4 4 4 4 4 4 4 4 4 3 4 4 4 4 5 5 5 5 5 5 5 5 5 5 5 5 5 5 4 5 5 5 4 5 5 5 5 5 5 4 4 3 3 3 2 3 3 3 4 4 2 4 5 4 5 4 7 8 7 7 6 7 7 7 7
6 7 7 8 9 9 8 7 6 7 7 7 7 6 4 5 5 5 4 4 4 5 5 6 6 5 5 5 5 5 4 3 3 4 3 4 4 5 5 6 6 6 5 6 5 6 5 5 5 5 5 6 5 5 5 5 5 5 5 4 5 4 3 3 2 3 3 3 3 4 4 5 2 6 6 5 4 7 8 8 8 7 8 7 7
6 7 8 8 9 9 8 8 8 7 7 7 7 7 6 6 5 4 4 4 4 5 5 4 4 4 4 4 4 3 3 2 3 3 3 3 4 4 5 5 6 6 6 6 6 5 5 5 5 4 5 5 5 5 5 4 6 6 6 5 4 5 4 3 2 2 2 3 3 2 2 3 4 2 2 3 5 6 7 8 8 8 7 7 7
6 6 7 8 8 9 9 9 9 8 7 7 7 8 8 7 7 5 4 3 4 4 4 3 4 3 3 2 1 2 3 3 3 3 2 3 3 3 4 4 5 6 6 6 5 6 5 5 5 5 4 4 4 5 5 6 5 6 6 5 5 4 4 3 3 2 1 2 2 2 2 3 1 3 1 7 5 4 6 7 7 8 8 7 7
5 7 8 8 8 9 9 9 9 7 7 7 7 8 9 8 7 6 4 4 3 3 3 2 2 3 3 3 2 2 2 4 4 3 2 2 3 3 2 3 5 5 6 6 6 6 5 4 4 4 4 4 3 4 5 5 5 6 6 6 5 5 5 4 4 3 3 2 2 3 2 1 2 1 4 4 6 7 5 6 6 7 8 8 7
4 5 6 7 8 8 8 9 8 8 7 7 7 7 7 7 7 6 5 5 4 3 3 3 2 2 3 3 3 2 2 3 3 3 2 2 2 2 2 3 4 5 5 5 6 5 5 4 4 4 4 4 4 4 4 5 6 6 7 6 6 5 5 5 4 4 4 4 3 2 2 2 2 2 2 3 2 6 7 7 8 7 8 8 7
4 4 4 5 6 7 8 8 9 8 7 7 7 6 6 6 7 8 7 6 5 5 3 3 3 3 3 4 4 3 3 3 2 3 3 2 2 1 1 1 3 3 4 5 5 5 5 5 4 4 4 4 4 5 5 5 5 6 6 6 7 6 5 5 5 4 4 4 3 3 3 2 1 1 0 1 4 10 7 7 7 7 7 7 6
4 4 4 4 6 7 7 8 9 8 7 7 7 7 7 7 7 8 8 5 6 5 5 4 4 4 4 4 5 5 4 4 3 4 3 2 1 1 1 2 2 3 3 3 4 4 4 4 4 4 4 4 4 4 4 5 5 5 5 6 6 7 6 5 4 5 4 4 4 3 3 3 3 4 2 2 4 7 8 7 5 6 9 8 5
3 4 4 5 5 7 7 8 9 8 9 9 7 7 6 6 6 7 7 6 5 5 5 5 4 4 4 4 5 4 4 4 4 3 3 3 2 1 1 1 1 1 2 2 3 4 3 3 3 3 3 3 3 3 4 4 4 4 5 5 6 6 6 6 5 5 5 3 4 4 3 3 2 3 4 3 4 5 6 9 7 8 8 8 5
3 3 3 4 5 5 6 7 7 8 8 9 9 8 7 7 7 7 7 7 7 6 6 6 5 5 5 5 4 4 4 3 3 3 3 2 2 1 1 1 1 1 2 2 3 2 1 2 2 2 2 3 3 2 3 4 4 3 4 5 5 6 5 5 4 5 4 4 3 3 3 3 3 3 3 3 3 4 5 8 6 7 9 8 6
2 2 3 4 4 4 5 6 7 7 8 8 9 9 8 7 8 8 8 8 7 7 7 6 6 5 5 4 3 3 4 3 2 3 3 2 2 2 1 1 1 1 2 2 2 1 1 2 1 2 2 2 2 3 3 3 4 3 3 4 4 4 4 3 3 3 3 4 3 3 3 3 3 4 3 2 1 5 4 7 8 7 9 8 5
3 4 4 4 4 4 4 5 6 6 7 8 8 9 9 8 8 9 8 8 8 8 6 6 5 6 5 4 3 3 3 3 3 2 2 2 2 2 1 1 1 2 2 2 2 1 1 2 2 2 2 2 2 2 2 1 3 3 3 3 3 3 3 3 3 3 3 4 4 3 3 3 4 3 3 2 1 1 4 9 8 10 6 7 6
3 4 4 4 4 4 4 4 5 6 7 7 8 8 8 8 8 9 9 8 8 8 7 6 6 5 5 5 4 3 3 2 2 2 3 2 3 2 3 1 1 1 2 1 1 0 2 1 2 2 1 2 1 1 2 2 3 3 2 2 3 2 3 3 2 2 2 2 3 3 2 4 4 4 3 1 1 1 1 5 8 7 8 8 6
2 3 3 5 5 5 4 4 4 5 5 6 6 7 8 8 8 9 9 8 8 8 7 6 6 5 5 5 5 4 4 4 3 3 3 3 3 2 2 2 2 1 1 1 1 1 2 1 2 2 2 1 1 2 2 3 3 2 2 2 3 2 3 3 3 2 2 1 2 2 3 2 3 3 3 1 1 1 2 2 4 4 3 8 7
2 1 2 2 3 4 5 4 5 5 5 5 6 6 7 8 8 9 9 9 9 8 8 7 6 6 5 5 5 5 4 4 3 3 4 4 3 3 3 3 3 2 1 1 1 2 2 2 2 1 1 1 1 1 2 3 2 2 1 2 3 2 2 3 3 3 2 2 2 2 2 2 3 3 3 3 1 2 1 0 3 6 7 6 6
2 2 2 3 4 4 5 5 5 5 5 5 5 6 7 7 8 9 9 9 9 7 8 7 7 5 5 5 6 5 5 4 3 3 3 4 4 4 4 3 3 2 1 1 2 2 3 2 2 2 1 1 1 2 2 2 3 2 1 1 2 2 2 3 3 3 2 2 2 2 2 2 2 2 3 2 2 1 3 3 3 0 3 1 8
1 2 2 2 2 3 5 6 7 7 8 7 8 7 8 8 8 9 9 9 9 9 8 8 7 7 6 6 6 6 5 4 3 3 4 4 4 5 4 4 3 3 2 2 2 3 3 3 2 2 2 1 1 1 2 2 2 2 2 2 2 1 2 2 3 3 2 2 2 2 3 3 2 2 2 3 1 2 1 3 4 4 3 2 3
2 2 1 1 1 2 3 4 5 6 6 7 8 9 9 8 9 10 11 11 11 10 9 9 8 8 8 8 7 6 5 4 3 4 3 3 3 3 4 4 4 4 3 3 3 4 4 3 3 2 1 2 1 1 2 1 1 1 2 2 2 2 1 2 2 3 2 2 2 2 3 3 3 3 3 2 2 1 3 2 3 4 3 3 3
4 3 3 2 1 0 1 2 3 4 6 7 7 8 9 10 10 11 11 11 11 11 10 10 10 9 9 9 8 6 5 5 5 5 5 5 5 5 5 5 5 4 4 4 4 4 4 5 3 3 2 2 1 2 2 1 1 0 1 1 2 2 2 1 1 2 3 2 2 3 3 3 3 3 3 3 2 1 1 3 2 2 2 3 4
6 6 5 4 3 2 1 1 3 4 5 6 7 8 8 10 10 10 10 11 10 10 10 10 10 10 10 8 7 5 5 5 7 6 7 7 6 7 7 7 6 5 5 5 4 5 6 5 5 4 3 2 1 2 2 1 1 1 1 1 1 2 1 0 1 1 2 2 2 2 2 2 2 2 2 2 2 1 1 1 3 3 3 4 4
8 7 7 4 3 1 1 1 2 2 4 5 6 7 8 9 9 10 10 10 10 9 10 11 11 11 10 8 8 10 10 8 7 7 8 7 7 8 8 8 8 6 6 5 4 6 6 5 5 4 4 3 2 2 1 2 2 2 2 2 1 1 0 1 1 2 2 2 2 2 2 2 2 2 3 2 2 2 1 3 3 4 4 5 4
9 8 7 6 5 6 7 6 4 4 4 4 6 8 8 9 8 9 9 9 10 10 11 11 10 10 9 10 12 11 10 9 10 8 9 9 9 9 8 9 8 7 6 5 5 6 6 6 5 5 5 4 3 2 2 2 2 1 2 1 1 2 1 2 2 3 2 2 2 2 3 2 2 2 3 3 4 2 3 3 4 4 5 5 4
11 11 11 11 10 10 10 9 9 8 8 7 6 7 8 8 8 8 8 8 9 8 9 9 8 8 9 12 12 12 12 12 10 9 9 9 9 10 9 9 9 8 7 6 6 6 6 7 6 6 5 4 3 2 2 2 2 2 2 2 2 2 2 3 3 2 3 3 2 3 2 2 3 3 4 4 4 4 3 4 4 4 5 4 3
10 11 10 10 11 12 12 12 11 12 11 9 8 8 7 7 7 8 8 8 8 8 8 7 7 7 10 12 11 11 11 11 11 10 9 10 11 10 10 10 9 8 8 7 7 7 6 7 6 5 5 5 4 3 2 2 2 3 3 3 3 3 3 2 2 3 3 3 3 3 3 3 3 3 3 4 4 4 4 5 4 5 4 4 4
10 12 14 14 13 13 13 12 12 12 12 12 11 9 7 7 6 6 6 7 6 8 8 8 7 7 8 11 11 11 11 11 11 10 10 10 10 10 10 10 9 9 8 8 7 7 7 6 6 6 5 5 4 4 3 2 2 3 3 3 3 3 4 3 3 3 3 3 3 3 3 4 5 5 5 4 3 3 3 4 4 3 4 3 3
14 14 14 14 13 13 13 13 12 13 13 13 12 11 8 5 4 5 4 6 6 7 8 7 7 8 9 9 10 10 9 10 9 9 8 8 10 10 10 10 9 9 7 8 7 7 7 7 7 6 6 5 5 4 3 2 3 3 3 4 3 4 3 3 4 4 3 3 4 5 5 6 7 9 11 9 8 8 3 3 3 3 2 2 3
13 13 12 12 12 13 14 13 13 14 14 13 12 11 10 8 6 5 4 4 4 5 6 6 7 7 7 9 10 10 10 9 9 9 9 9 10 11 11 10 10 10 9 8 7 7 7 8 8 8 7 5 5 3 6 6 7 1 4 3 4 4 3 4 3 4 4 5 5 6 7 10 10 11 11 10 10 11 12 9 5 3 2 2 2
12 13 14 14 14 14 14 14 14 14 14 13 13 11 9 8 6 6 7 9 8 6 5 5 5 6 7 8 9 9 10 11 11 10 8 9 12 11 11 12 11 10 9 8 7 7 7 7 8 8 7 6 5 4 9 5 3 5 2 4 4 4 4 3 3 3 4 5 5 6 6 7 8 9 9 10 10 9 11 11 12 11 10 7 1
13 14 14 15 15 15 14 14 14 14 14 13 11 11 11 9 8 7 4 3 6 8 7 6 6 5 7 8 8 9 9 11 12 12 12 12 13 13 13 12 11 11 10 9 8 8 8 7 7 7 7 6 5 10 11 9 5 5 7 2 4 4 3 3 3 3 4 4 4 4 4 3 4 5 6 7 9 10 9 10 11 11 11 11 9
12 13 13 13 13 14 14 13 13 13 13 13 12 11 10 9 8 5 3 1 1 5 7 9 7 5 5 5 5 6 7 9 11 12 13 13 13 14 13 13 13 11 10 10 10 9 8 8 7 8 8 7 5 11 12 10 8 6 6 6 5 4 4 4 3 3 3 3 4 4 3 4 5 3 4 6 7 7 8 8 9 10 10 10 10
11 12 11 11 10 11 12 12 12 12 12 11 12 11 9 9 11 9 5 1 2 3 7 9 8 5 3 0 2 6 8 9 9 11 11 12 13 13 12 11 11 11 11 10 10 10 9 9 9 8 8 7 6 12 12 11 10 8 8 9 4 4 4 4 4 3 3 3 3 3 4 4 4 3 4 4 4 5 4 4 4 4 5 6 6
12 13 13 11 11 11 11 12 11 11 11 11 12 12 11 9 10 10 11 8 4 4 4 4 4 5 4 4 6 8 9 10 9 10 10 12 12 12 12 11 10 11 11 11 10 10 9 9 9 9 8 8 6 14 13 12 11 10 10 9 4 4 4 4 4 4 3 3 3 2 3 4 4 3 4 4 3 4 4 4 4 5 5 5 6
8 9 8 9 10 10 11 12 11 11 12 11 12 11 11 9 10 7 8 9 8 7 10 8 4 3 4 6 7 8 9 9 9 10 11 11 12 12 12 11 10 10 9 9 9 9 10 10 10 10 8 9 8 16 14 13 12 12 10 6 5 5 5 5 5 4 4 3 3 3 4 4 4 5 5 5 6 1 5 5 5 6 6 7 7
8 8 9 8 7 7 8 10 11 11 11 10 10 11 11 11 10 10 10 10 10 7 7 8 10 9 6 4 4 7 8 7 7 7 8 9 10 12 11 10 10 10 10 10 10 10 10 10 11 10 10 9 8 13 15 14 13 12 10 7 6 6 5 6 5 5 4 4 4 4 4 4 5 5 4 3 3 6 5 5 5 5 5 6 6
9 8 8 8 8 9 9 10 11 10 8 8 9 9 10 10 11 12 12 11 11 11 11 9 7 8 9 7 7 6 7 6 6 5 6 9 10 9 9 4 6 8 10 11 10 10 10 10 11 11 11 10 8 13 16 15 14 14 12 8 7 6 7 6 6 5 5 4 4 6 4 4 4 6 5 2 5 6 4 5 6 6 6 6 5
9 9 10 10 9 10 11 10 9 7 8 9 9 9 8 9 8 9 10 11 12 12 12 10 11 9 8 10 8 8 7 5 8 10 10 9 7 2 5 5 8 7 8 8 9 9 9 9 9 10 11 11 8 11 16 16 15 16 13 9 8 7 7 7 6 6 5 5 6 5 3 7 5 8 7 4 5 7 3 4 5 5 5 5 5
11 10 10 9 9 9 9 9 9 9 8 9 9 8 9 9 10 9 8 8 9 11 12 12 11 10 10 8 8 9 8 7 4 9 8 7 2 5 8 7 8 9 8 8 8 9 9 9 9 10 9 11 10 9 14 17 17 16 16 10 8 8 8 8 7 7 6 6 7 6 6 6 10 10 7 4 6 7 3 4 3 4 4 5 4
11 11 12 9 9 9 9 9 8 9 8 8 8 8 8 8 8 8 10 9 9 8 11 11 10 11 11 11 9 9 9 9 7 7 7 8 6 9 9 10 10 10 11 10 10 9 10 10 10 11 10 11 11 9 13 18 17 17 18 14 8 9 8 8 8 7 7 7 7 6 8 9 9 9 7 5 3 5 8 1 2 4 5 6 3
9 11 12 10 10 10 12 11 10 11 10 9 9 8 8 8 8 9 9 7 8 8 7 9 11 11 11 10 10 8 8 7 8 7 7 6 9 10 7 6 8 8 10 10 9 10 10 11 10 11 11 11 11 12 10 17 17 17 17 18 10 9 8 9 8 8 7 7 7 7 7 11 11 10 8 6 3 3 6 4 8 7 7 3 2
12 12 13 11 10 11 11 11 10 11 10 9 9 9 9 8 9 10 10 9 8 7 6 7 7 9 9 10 9 9 8 7 7 7 8 7 5 8 8 9 9 10 11 11 11 11 10 11 10 9 10 11 11 11 14 14 17 17 18 18 16 10 7 7 8 8 8 6 7 7 9 16 14 12 9 8 6 1 5 5 7 8 4 2 6
11 11 12 11 10 10 10 10 10 10 10 10 9 10 10 10 11 10 10 10 10 9 8 7 5 5 7 8 9 9 8 8 8 8 8 8 7 6 9 9 8 8 8 10 11 12 12 11 11 10 9 10 11 10 14 17 16 19 17 18 18 16 8 9 7 7 7 6 7 7 10 17 15 14 12 10 7 7 1 10 6 5 3 4 5
11 12 13 11 11 11 11 11 10 12 10 10 9 10 11 12 10 10 10 11 10 11 10 9 8 7 7 7 7 7 8 8 8 7 8 7 7 7 7 9 8 8 7 6 7 9 10 11 10 10 10 10 10 10 10 14 18 19 18 18 17 17 11 10 8 7 7 6 7 14 18 17 16 15 13 10 6 7 2 6 7 5 4 5 4
10 11 12 11 11 10 11 12 11 12 11 10 9 9 10 10 10 10 11 11 10 10 10 10 9 8 8 8 9 8 8 9 8 7 7 7 7 7 7 7 8 9 9 8 7 8 9 9 10 10 10 9 9 10 10 10 12 14 15 17 18 17 13 11 11 4 5 11 15 15 17 16 14 12 9 8 8 7 9 6 6 5 6 5 5
11 11 12 11 11 11 12 13 12 12 12 11 11 11 10 10 11 10 11 11 11 12 11 10 9 9 8 8 10 8 9 8 8 8 8 8 7 7 7 7 7 8 9 9 9 9 8 7 9 8 6 6 8 9 9 10 11 10 10 10 11 10 11 9 9 8 7 6 10 10 9 11 10 14 10 9 9 10 9 6 6 7 7 6 5
10 10 11 10 11 12 12 12 11 11 11 11 11 12 12 11 10 11 11 11 11 11 11 12 11 9 7 8 9 9 10 9 9 9 9 9 8 7 6 6 7 7 8 10 8 7 8 8 8 8 8 9 9 8 10 11 11 11 11 11 11 10 10 11 11 11 10 9 8 9 10 8 8 8 8 8 9 8 9 9 8 8 8 7 5
11 10 10 10 10 11 12 12 11 10 10 10 11 12 12 12 11 10 10 10 11 11 11 12 12 10 9 8 9 9 9 9 10 9 9 9 9 8 7 7 7 6 6 8 8 8 8 7 6 7 10 12 12 14 13 12 11 14 14 13 13 12 12 11 13 12 10 9 9 9 8 9 9 10 10 10 10 9 9 9 10 9 8 8 7
10 9 10 11 11 11 12 12 12 11 11 11 11 11 12 12 12 11 11 10 10 11 11 11 11 11 10 9 9 9 10 10 10 10 10 9 5 9 8 7 7 3 5 10 8 9 8 8 10 9 11 11 11 9 12 16 12 16 16 18 17 18 17 14 14 15 12 10 10 11 11 10 10 10 11 10 10 10 10 10 10 10 8 8 8
11 11 11 12 12 12 12 13 12 11 11 12 12 12 12 12 12 11 11 11 11 10 10 11 11 11 10 10 10 9 10 10 10 10 10 10 10 5 14 16 13 11 7 8 12 13 8 5 9 10 11 13 7 9 18 18 17 16 17 17 15 17 17 16 17 14 12 11 11 12 11 11 11 11 11 11 10 10 10 10 10 10 9 9 8
Wind_Direction
152 152 159 151 148 146 148 139 131 135 146 152 155 155 160 161 155 157 156 166 174 165 158 142 132 127 123 100 109 109 93 94 77 66 71 74 66 65 64 62 58 53 51 49 45 47 39 35 33 26 20 31 29 27 20 15 12 354 334 307 315 320 7 335 315 298 260 210 124 125 89 56 71 63 69 70 63 61 54 63 57 61 55 59 62
152 157 158 158 158 151 154 145 145 154 152 160 160 155 158 159 157 149 164 174 167 147 130 135 152 100 127 107 103 105 101 81 80 84 81 78 71 65 60 55 55 59 49 46 43 37 37 38 34 29 21 28 20 23 24 20 13 11 348 331 322 340 352 349 360 306 234 261 231 166 105 81 69 70 74 72 69 69 73 72 67 65 63 65 68
173 165 161 167 166 161 160 155 156 157 152 163 152 155 162 163 151 155 151 153 145 145 153 122 106 89 89 111 105 97 78 74 80 82 86 82 71 63 55 48 50 46 45 53 42 37 39 37 36 30 24 21 23 27 27 26 13 12 9 0 346 323 212 82 7 326 302 286 274 256 189 176 110 89 75 69 70 73 77 81 82 75 73 73 71
174 174 170 165 171 168 165 168 160 159 161 159 157 163 166 167 154 150 144 144 135 116 108 113 106 108 105 106 107 102 107 112 112 107 94 90 81 64 53 46 40 39 40 43 52 42 37 38 46 38 34 25 24 33 29 24 18 11 13 15 360 338 1 33 10 355 331 321 244 249 280 272 197 149 104 74 78 74 67 74 76 84 92 82 71
177 170 177 169 173 175 177 173 165 170 173 162 164 166 175 166 158 154 147 142 132 134 133 131 135 132 124 126 120 120 134 121 111 91 91 92 81 61 54 48 44 38 38 35 43 45 37 35 33 48 39 30 24 34 33 27 24 24 16 12 21 356 358 356 34 348 357 355 317 286 248 226 340 148 141 76 43 81 76 78 71 72 68 70 70
188 176 175 181 179 175 175 175 179 177 179 168 168 165 171 163 166 165 154 152 141 145 150 157 144 138 145 154 153 147 128 134 90 89 92 72 72 79 60 41 46 37 32 39 34 35 38 38 31 33 44 35 29 29 30 27 30 23 23 16 20 18 347 339 14 32 346 12 0 10 354 309 332 15 141 123 64 68 91 77 81 75 73 70 68
186 176 169 173 184 181 177 181 187 183 182 176 171 168 169 167 166 168 165 153 148 153 159 146 138 139 148 139 120 113 109 98 102 107 99 101 100 69 61 48 32 37 34 30 37 31 31 31 32 21 37 38 34 27 29 18 28 27 18 24 20 16 2 6 360 16 14 358 355 23 9 336 325 289 321 109 115 48 40 80 80 70 68 69 68
186 191 182 175 176 186 184 184 187 191 180 179 179 177 175 173 172 171 175 165 161 157 164 142 134 141 153 153 156 150 112 117 142 122 106 116 105 82 76 70 45 28 21 25 18 32 22 24 26 31 19 44 27 37 31 27 22 27 21 20 25 22 19 10 6 5 8 38 13 14 0 15 338 289 280 275 132 133 99 88 88 88 80 66 60
205 189 189 180 163 187 187 183 180 191 183 180 187 187 180 178 182 180 179 166 158 176 171 153 157 163 172 170 166 146 137 145 150 142 138 111 112 97 40 31 45 23 19 21 19 23 20 20 16 27 24 26 17 35 33 32 27 27 27 24 19 24 19 15 9 17 24 27 341 36 333 357 359 14 351 270 205 131 130 131 122 101 85 72 69
220 212 189 172 161 176 181 180 185 190 176 183 187 189 186 178 182 182 179 182 171 180 182 165 172 189 189 189 180 164 169 152 172 150 164 174 142 125 80 48 25 31 22 20 8 17 13 9 12 25 24 26 26 31 24 26 26 29 27 28 23 20 25 17 13 21 29 29 23 3 3 341 296 247 177 241 218 149 138 150 147 132 100 82 70
215 206 206 167 157 166 172 178 184 189 185 186 186 188 191 192 189 190 186 183 171 180 183 175 181 199 197 192 181 173 171 168 176 173 170 186 168 137 118 48 25 25 15 27 13 11 12 10 9 18 30 22 20 26 20 19 15 16 22 13 23 15 17 15 19 22 24 34 28 29 22 14 2 337 346 343 304 109 147 144 145 120 114 110 89
202 202 204 192 164 163 169 179 182 189 195 194 194 195 205 204 202 199 185 186 183 184 187 181 189 199 205 194 182 176 177 180 189 184 183 188 173 145 116 128 66 32 17 16 31 4 13 9 26 30 37 33 24 26 22 19 11 10 12 13 9 11 16 6 18 17 23 29 46 37 34 24 18 340 5 336 33 122 147 143 132 122 115 105 94
176 192 203 204 212 192 179 181 190 189 199 201 199 201 207 212 209 209 199 192 193 189 194 187 195 202 202 197 189 181 192 199 199 184 186 197 175 155 187 79 118 57 45 14 57 31 15 31 23 37 50 50 40 35 60 30 11 6 14 9 9 10 16 3 20 15 10 14 21 39 30 21 26 25 1 353 90 136 149 144 137 144 125 119 113
131 159 206 216 225 218 190 181 186 196 197 202 206 205 206 207 209 214 212 200 196 196 198 196 199 204 205 208 192 184 195 201 202 190 175 202 169 160 201 58 74 59 61 41 27 47 68 61 40 49 42 52 65 51 44 38 2 1 5 10 12 16 18 356 34 16 20 16 10 25 23 30 27 17 22 0 112 154 164 146 151 133 121 116 124
159 176 191 202 209 221 213 193 189 192 196 205 206 209 209 207 208 214 216 207 201 201 202 206 205 202 202 206 202 203 200 197 196 181 174 191 172 155 143 125 42 48 51 46 54 92 100 70 51 67 59 62 60 29 8 29 8 344 4 4 36 3 38 20 50 25 23 20 25 13 18 38 15 20 35 14 122 236 151 152 150 127 125 129 124
159 163 177 189 195 208 209 207 200 198 201 207 212 212 212 214 211 215 220 217 210 207 210 211 214 203 200 202 207 212 220 209 193 180 176 194 169 174 141 151 93 87 74 56 65 135 109 117 97 69 84 74 48 26 6 357 1 356 343 20 40 25 63 39 45 75 47 29 32 2 359 31 10 9 23 16 15 55 21 155 142 142 133 131 127
155 157 176 171 187 193 206 210 209 208 206 213 216 218 219 218 219 217 219 223 219 212 215 215 215 212 203 206 210 209 214 216 215 186 186 183 177 176 154 152 127 179 105 61 188 151 183 147 109 103 107 87 40 32 18 8 354 359 18 31 38 51 60 66 56 50 71 18 51 3 15 18 18 1 32 47 79 347 135 278 59 91 168 139 158
107 100 138 175 185 183 198 202 212 211 219 218 225 224 227 227 226 225 221 223 222 218 216 216 214 213 212 211 211 217 223 218 218 199 187 185 181 179 166 167 185 164 161 123 198 184 164 204 148 134 77 53 36 31 18 13 348 33 21 45 31 26 69 70 51 45 35 43 36 18 16 29 24 2 29 44 119 162 172 135 151 178 147 166 158
144 151 157 175 189 189 196 200 203 202 212 225 224 224 228 226 225 229 230 228 229 226 222 220 214 212 213 208 210 212 220 226 215 200 196 198 189 187 181 181 179 189 200 193 201 194 197 183 187 167 165 122 63 33 356 22 8 24 20 60 43 23 46 64 58 36 30 32 40 55 35 53 19 21 360 43 57 199 157 166 159 252 157 139 154
144 134 137 155 177 201 187 197 206 198 202 206 212 218 221 221 224 226 229 228 226 226 224 223 216 211 206 206 205 211 213 213 203 200 207 215 200 194 182 186 197 208 198 240 237 210 202 204 193 195 180 151 101 31 17 11 27 26 12 31 54 16 46 55 68 53 39 29 65 77 53 36 7 348 38 0 14 114 223 157 166 154 172 177 146
118 104 102 123 166 200 201 204 219 210 211 211 209 212 213 212 218 221 221 223 222 218 217 219 219 216 208 204 199 201 202 201 199 202 217 217 226 228 199 202 200 214 209 226 227 226 206 208 199 204 202 161 158 81 20 357 45 48 31 19 6 13 17 49 59 80 65 43 42 60 68 50 20 9 3 349 356 345 158 222 162 166 163 160 154
64 72 71 70 66 353 271 210 240 225 225 222 221 220 221 218 216 214 214 218 218 214 213 213 213 211 210 206 200 195 193 196 199 202 206 207 213 218 213 213 216 206 218 228 223 220 210 217 214 199 192 165 160 80 23 5 34 117 83 349 346 338 345 66 14 86 84 77 42 41 65 49 14 9 356 353 354 309 222 175 186 171 160 142 128
54 66 65 54 40 356 355 302 263 249 251 246 239 233 234 227 227 225 220 222 224 220 215 211 210 208 205 205 191 177 170 198 202 208 209 206 208 218 211 214 216 205 212 221 219 207 218 210 191 208 191 170 150 89 44 37 44 334 354 25 332 346 326 311 172 87 87 89 91 80 66 45 359 13 18 26 6 333 307 122 149 151 126 114 121
71 76 71 62 65 82 37 10 307 286 270 260 259 256 250 245 237 231 224 222 224 224 222 215 210 206 196 186 159 152 168 190 193 202 208 206 222 216 208 213 216 209 206 209 215 213 211 208 201 199 184 185 163 143 104 44 27 10 346 10 23 77 124 167 90 105 82 60 60 82 68 43 6 42 31 54 59 44 76 95 96 98 130 128 121
78 72 69 75 74 58 49 39 20 357 315 272 267 266 257 251 245 242 240 219 217 218 220 218 211 204 189 179 168 166 177 187 198 194 203 216 225 218 208 212 211 208 208 202 206 214 206 205 198 199 185 179 175 152 122 120 112 44 36 59 63 77 109 101 94 89 67 59 71 59 48 46 25 56 65 63 65 52 90 108 129 129 127 127 139
77 74 69 60 53 50 48 38 31 22 3 346 305 269 262 258 248 243 238 234 231 226 227 228 217 195 183 183 173 177 191 194 193 192 201 214 227 220 210 212 212 208 203 206 206 201 207 202 199 197 185 173 163 148 118 88 93 100 94 75 81 106 102 108 109 92 84 80 63 62 66 45 50 53 63 59 54 75 95 119 130 140 138 146 131
52 59 57 56 50 43 40 34 25 19 14 5 347 324 304 267 250 241 242 243 242 238 231 227 217 194 181 184 188 189 196 192 189 196 200 212 221 219 212 210 206 209 203 208 203 203 206 213 197 190 183 171 163 156 123 119 112 106 111 108 118 115 112 97 94 98 97 86 72 79 73 64 57 55 57 57 70 75 83 94 109 113 118 125 140
61 52 45 42 38 33 30 26 23 17 14 12 6 353 338 320 277 242 241 240 245 249 241 228 212 199 196 198 202 212 204 198 193 194 203 213 219 214 214 209 204 207 208 209 205 201 199 212 196 194 183 168 163 172 154 136 120 120 128 132 122 120 111 112 109 98 93 91 91 84 70 53 40 30 19 31 29 78 96 105 102 113 117 139 131
50 44 38 34 30 30 28 23 19 16 14 14 13 7 359 344 319 288 250 236 239 247 247 232 216 212 211 212 202 215 211 200 192 194 207 222 222 218 212 209 203 206 209 211 201 204 196 206 193 193 182 177 178 169 163 163 138 135 144 137 124 114 117 113 113 108 102 97 91 73 52 53 54 52 42 34 31 10 351 121 114 116 126 133 150
55 48 41 36 27 26 24 20 19 16 13 12 13 15 11 2 354 332 298 288 267 258 254 235 226 224 217 215 209 210 211 197 185 192 206 214 218 217 213 209 203 205 203 208 202 204 202 203 196 191 185 182 180 173 88 40 350 138 156 135 133 125 117 112 110 108 102 96 93 89 81 76 71 63 55 44 38 35 31 27 28 37 76 140 146
50 47 37 31 26 22 17 14 14 13 11 12 10 6 11 10 13 16 356 340 325 297 272 249 236 229 227 218 212 206 198 201 189 192 201 215 217 212 208 207 203 203 202 199 204 201 207 205 198 191 184 188 187 136 124 130 139 307 214 151 138 128 121 125 130 117 118 115 113 113 115 122 110 91 74 64 51 49 52 51 46 42 30 16 359
44 43 39 32 27 22 17 11 8 5 6 8 15 359 6 4 12 16 33 17 328 306 287 265 235 228 231 222 214 207 200 200 190 196 200 209 214 211 206 203 199 198 197 196 199 205 202 203 202 194 190 190 185 126 149 148 173 215 271 177 145 136 136 135 125 129 125 117 116 116 110 103 82 82 110 98 78 65 68 68 59 49 41 40 39
33 32 30 26 23 21 19 13 8 6 360 0 1 358 1 359 350 356 7 27 255 281 307 299 281 253 240 236 235 232 222 210 201 201 203 205 207 207 205 201 199 194 191 196 197 200 200 198 201 200 195 190 170 144 153 162 171 200 256 262 147 140 146 135 138 124 110 119 122 126 124 113 108 162 149 114 112 99 86 87 93 83 62 49 39
17 17 16 12 7 5 3 7 7 7 3 353 0 353 2 356 345 335 327 324 43 341 282 277 283 277 264 26 292 281 259 232 213 207 203 205 207 207 203 200 197 191 194 195 197 197 198 196 199 200 196 192 172 152 163 166 173 191 221 260 136 160 135 132 135 128 130 122 125 130 134 132 131 137 104 130 123 132 134 137 125 101 96 101 95
360 357 355 352 351 350 349 347 351 355 1 358 0 357 356 13 3 342 336 334 304 279 244 254 285 308 282 201 227 225 234 241 225 210 205 206 208 208 203 199 196 193 195 197 195 198 197 198 197 200 197 195 157 153 167 169 174 186 201 252 158 164 150 138 137 130 128 124 112 108 110 117 125 120 77 13 130 129 123 115 114 104 88 69 57
331 330 329 329 337 337 337 334 332 336 337 349 358 355 2 9 2 3 352 322 336 355 328 328 309 278 281 275 244 233 236 233 225 214 212 212 212 207 200 195 195 194 199 200 200 201 197 196 199 196 202 198 145 158 165 172 176 184 192 216 172 176 159 152 147 145 149 147 138 137 130 122 112 108 76 358 340 103 131 126 120 111 101 90 74
314 318 314 316 311 316 319 312 312 327 341 352 352 354 353 3 14 4 355 351 355 1 340 327 331 322 304 259 242 283 282 259 241 231 226 228 220 213 205 198 194 194 193 198 203 202 199 198 195 196 198 203 155 165 167 172 178 183 190 203 171 189 162 161 158 150 157 145 155 154 141 126 127 114 98 332 322 307 132 134 125 119 113 108 104
328 322 309 312 320 314 310 310 303 326 7 356 352 353 352 2 9 7 2 356 357 354 352 351 343 325 322 308 293 243 218 241 302 303 280 254 240 222 216 179 214 199 199 201 203 204 204 202 198 195 197 202 184 162 170 172 178 184 202 199 183 186 169 170 159 167 156 155 106 38 343 138 125 122 126 244 274 280 136 131 130 131 125 118 119
344 342 335 331 328 319 315 320 325 1 356 350 350 343 339 351 359 359 355 352 355 347 344 343 334 340 330 329 318 304 296 250 174 231 230 237 242 221 102 203 228 226 212 203 202 206 205 206 204 202 189 199 195 161 173 173 180 187 205 208 196 181 178 178 170 168 167 153 142 165 29 10 98 117 145 224 271 295 147 136 134 136 123 118 112
355 4 354 331 322 322 334 347 348 351 345 348 350 351 350 347 345 351 1 355 351 343 340 338 338 333 335 327 322 316 306 298 267 213 234 254 176 165 176 204 228 233 226 214 203 205 202 207 203 203 192 199 205 164 174 178 182 188 207 223 194 194 182 180 184 171 177 163 160 162 141 105 114 139 161 202 270 313 315 135 155 130 125 116 123
6 6 349 344 344 350 351 358 3 359 359 1 2 359 357 358 350 0 357 344 340 344 341 336 333 333 334 330 330 323 315 307 291 274 253 204 181 225 204 209 216 223 228 219 211 209 210 213 207 201 199 196 208 188 169 181 184 190 202 224 210 201 189 182 185 179 183 173 173 174 166 137 147 152 171 178 274 315 327 291 85 76 65 73 94
19 14 7 355 354 6 9 11 15 7 3 6 5 1 1 358 358 358 353 341 339 337 338 336 334 337 337 331 326 322 314 305 299 292 274 247 196 211 220 218 226 228 224 222 216 213 216 215 210 203 201 200 195 197 163 181 186 191 200 213 234 200 203 182 192 184 190 178 182 173 160 153 158 164 167 185 182 266 304 314 71 73 65 60 291
12 11 12 0 1 8 12 9 12 10 7 8 5 8 9 3 7 356 348 341 333 325 329 330 331 335 338 330 326 322 313 308 302 295 285 272 242 202 220 237 224 217 223 222 220 222 219 216 212 204 203 200 194 188 160 171 187 192 198 210 230 250 198 224 192 190 195 177 178 175 140 149 163 166 173 176 184 154 249 80 96 88 81 4 283
19 17 7 359 7 11 12 15 15 13 12 11 9 11 9 4 3 352 349 344 342 337 331 329 327 332 330 327 327 325 322 316 307 300 290 284 273 226 199 236 237 232 224 226 234 235 230 222 213 208 207 201 195 192 166 166 178 191 196 206 216 237 264 216 207 194 195 188 171 181 142 157 162 168 171 176 175 195 114 113 111 112 133 233 263
10 11 5 2 5 5 6 8 14 13 9 11 11 10 7 7 1 355 354 351 347 345 343 336 338 338 330 324 321 320 322 318 314 306 295 288 280 261 223 207 241 246 242 253 253 246 237 236 226 219 209 201 193 193 176 171 173 184 194 199 213 218 238 246 234 213 200 192 122 115 137 158 163 168 169 164 171 208 111 116 128 163 211 219 220
10 10 4 1 2 3 5 0 0 4 360 358 359 354 0 356 352 355 354 353 349 350 344 340 341 340 340 337 336 333 330 321 310 303 293 286 283 273 258 245 214 214 235 221 209 234 248 248 245 234 221 205 192 194 185 169 175 178 190 199 204 210 216 227 238 278 62 95 120 134 147 155 160 157 160 180 196 190 171 144 146 196 225 230 216
10 9 359 2 1 2 1 358 356 359 353 348 350 345 345 344 340 342 346 347 347 346 341 337 339 335 338 349 339 342 328 315 317 314 306 300 285 271 265 249 246 228 217 226 227 226 215 225 248 245 243 226 209 197 192 170 175 178 187 188 199 215 218 222 223 215 144 127 117 135 151 159 161 170 184 179 194 137 150 175 200 210 227 230 216
2 3 359 358 359 356 355 352 350 352 350 347 349 346 345 344 338 341 341 340 337 339 333 332 331 332 335 346 340 330 319 325 325 322 316 314 309 299 280 266 250 234 223 222 230 223 216 209 198 204 223 235 235 216 203 194 181 181 183 183 188 196 196 204 209 210 206 179 149 115 127 155 150 166 188 188 195 191 194 189 204 203 211 222 222
352 351 350 353 348 348 345 342 339 341 340 339 342 339 340 339 339 342 344 340 336 328 323 319 320 323 325 339 334 330 327 326 324 320 318 313 311 311 298 286 262 258 232 235 228 227 234 229 218 208 225 224 224 228 220 198 182 174 180 185 188 193 195 197 201 195 194 178 157 168 170 171 178 182 191 199 194 198 198 194 196 200 200 200 203
342 337 339 342 341 340 335 333 332 333 331 331 332 330 328 328 331 332 334 333 332 327 322 317 314 312 314 328 328 324 322 321 320 319 319 316 270 222 253 265 274 278 233 224 217 239 238 225 233 225 218 227 226 224 137 136 159 184 187 187 186 184 184 192 175 180 195 184 183 189 189 186 188 190 193 199 196 196 196 195 193 196 201 196 198
334 331 336 338 335 334 331 329 328 327 326 328 326 322 321 322 324 325 325 325 324 324 320 319 320 315 325 321 314 316 317 315 314 313 316 315 320 254 209 226 235 238 207 218 236 234 242 279 250 239 235 229 258 110 156 172 181 181 188 192 186 179 175 173 154 166 192 197 190 193 193 195 194 195 196 196 197 195 197 197 195 188 202 198 197